Location: Unspecified
(0.0000°N, 0.0000°E)
Time: 06:45:32
(UTC+00:00)

Courier 1B - Pass Details

Date: 02 October 2023
Orbit: 962 x 1208 km, 28.3° (Epoch: 06 December)

Event Time Altitude Azimuth Distance (km) Brightness Sun altitude
Rises 18:46:46 0° 300° (WNW) 4,084 11.7 -14.3°
Reaches altitude 10° 18:49:39 10° 299° (WNW) 3,104 11.0 -15.0°
Maximum altitude 18:57:24 87° 211° (SSW) 1,151 7.8 -17.0°
Enters shadow 19:02:50 20° 122° (ESE) 2,317 9.0 -18.3°
Drops below altitude 10° 19:04:44 10° 121° (ESE) 2,949 - -18.8°
Sets 19:07:25 0° 121° (ESE) 3,871 - -19.5°
